Date String (YYYY-MM-DD hh:mm:ss) UTC,Instrument flags,absolute air pressure of the measurement (hPa),sample flow rate (lpm),inlet stack bypass flow (lpm),air temperature of the measurement (°C),ambient temperature measured by the external sensor (°C),aerosol sample conditioner tube jacket temperature (°C),OPC LED temperature (°C),internal box temperature (°C),relative humidity of the measurement (%),span deviation,mass concentration of particles derived from Lorenz-Mie calculation of OPC scattering (μg/m³),mass concentration of particles derived from Lorenz-Mie calculation of OPC scattering (μg/m³),mass concentration of particles derived from Lorenz-Mie calculation of OPC scattering (μg/m³)
DateTimeUTC,F1_M11,P_M11,Q1_M11,Q2_M11,T1_M11,T2_M11,T3_M11,T4_M11,T5_M11,U1_M11,ZSPAN_M11,X0_M11,X2_M11,X1_M11
2023-09-25 20:00:00,SystemResetWarning,0835.6,5.00,000.00,027.8,024.7,000.0,036.1,029.2,11.0,0000.0,0010.17,0003.71,0003.23
2023-09-25 20:01:00,SystemResetWarning,0835.6,5.00,000.00,027.8,025.1,000.0,036.1,029.2,10.5,0000.0,0010.28,0003.72,0003.24
2023-09-25 20:02:00,SystemResetWarning,0835.6,5.00,000.00,027.8,025.5,000.0,036.1,029.3,10.4,0000.0,0011.34,0003.70,0003.25
2023-09-25 20:03:00,SystemResetWarning,0835.6,5.01,000.00,027.8,025.9,000.0,036.1,029.4,10.7,0000.0,0011.37,0003.71,0003.25
2023-09-25 20:04:00,SystemResetWarning,0835.6,5.00,000.00,027.8,026.2,000.0,036.2,029.5,11.1,0000.0,0010.93,0003.73,0003.26
2023-09-25 20:05:00,SystemResetWarning,0835.6,5.00,000.00,027.9,026.5,000.0,036.2,029.6,11.1,0000.0,0010.62,0003.72,0003.25
2023-09-25 20:06:00,SystemResetWarning,0835.6,5.00,000.00,027.9,026.7,000.0,036.2,029.6,10.5,0000.0,0009.50,0003.72,0003.25
2023-09-25 20:07:00,SystemResetWarning,0835.6,5.00,000.00,028.0,026.9,000.0,036.2,029.7,10.7,0000.0,0009.46,0003.72,0003.25
2023-09-25 20:08:00,SystemResetWarning,0835.6,5.00,000.00,028.0,027.1,000.0,036.3,029.8,10.8,0000.0,0009.49,0003.75,0003.25
2023-09-25 20:09:00,SystemResetWarning,0835.6,4.99,000.00,028.1,026.7,000.0,036.2,029.7,9.9,0000.0,0009.54,0003.75,0003.25
2023-09-25 20:10:00,SystemResetWarning,0835.5,5.00,000.00,028.0,024.9,000.0,036.2,029.4,9.9,0000.0,0009.10,0003.75,0003.26
2023-09-25 20:11:00,SystemResetWarning,0835.5,5.01,000.00,027.9,024.1,000.0,036.1,029.2,9.8,0000.0,0009.25,0003.75,0003.27
2023-09-25 20:12:00,SystemResetWarning,0835.5,5.01,000.00,027.8,024.3,000.0,036.1,029.1,10.2,0000.0,0009.45,0003.74,0003.28
2023-09-25 20:13:00,SystemResetWarning,0835.6,5.00,000.00,027.7,024.7,000.0,036.1,029.1,10.1,0000.0,0008.48,0003.75,0003.28
2023-09-25 20:14:00,SystemResetWarning,0835.5,5.00,000.00,027.7,025.1,000.0,036.1,029.2,10.1,0000.0,0008.71,0003.77,0003.28
2023-09-25 20:15:00,SystemResetWarning,0835.5,5.00,000.00,027.7,025.5,000.0,036.1,029.3,10.2,0000.0,0008.74,0003.78,0003.29
2023-09-25 20:16:00,SystemResetWarning,0835.5,5.01,000.00,027.8,025.9,000.0,036.2,029.4,10.2,0000.0,0009.49,0003.78,0003.30
2023-09-25 20:17:00,SystemResetWarning,0835.5,4.99,000.00,027.8,026.2,000.0,036.2,029.5,10.2,0000.0,0009.33,0003.78,0003.30
2023-09-25 20:18:00,SystemResetWarning,0835.5,4.99,000.00,027.9,026.5,000.0,036.2,029.5,10.5,0000.0,0009.44,0003.77,0003.30
2023-09-25 20:19:00,SystemResetWarning,0835.5,5.00,000.00,027.9,026.7,000.0,036.2,029.6,10.7,0000.0,0010.82,0003.78,0003.30
2023-09-25 20:20:00,SystemResetWarning,0835.5,5.00,000.00,028.0,026.9,000.0,036.2,029.7,10.8,0000.0,0011.97,0003.77,0003.30
2023-09-25 20:21:00,SystemResetWarning,0835.6,5.00,000.00,028.0,026.9,000.0,036.2,029.8,10.7,0000.0,0012.10,0003.79,0003.31
2023-09-25 20:22:00,SystemResetWarning,0835.5,4.99,000.00,028.0,025.3,000.0,036.2,029.5,10.3,0000.0,0012.04,0003.78,0003.30
2023-09-25 20:23:00,SystemResetWarning,0835.5,5.01,000.00,027.9,024.2,000.0,036.1,029.2,10.1,0000.0,0011.97,0003.76,0003.30
2023-09-25 20:24:00,SystemResetWarning,0835.5,5.01,000.00,027.8,024.3,000.0,036.1,029.2,10.1,0000.0,0011.88,0003.76,0003.31
2023-09-25 20:25:00,SystemResetWarning,0835.5,5.00,000.00,027.7,024.6,000.0,036.1,029.1,9.9,0000.0,0011.68,0003.72,0003.32
2023-09-25 20:26:00,SystemResetWarning,0835.5,5.00,000.00,027.7,025.0,000.0,036.1,029.2,9.9,0000.0,0011.82,0003.71,0003.32
2023-09-25 20:27:00,SystemResetWarning,0835.4,4.99,000.00,027.7,025.4,000.0,036.1,029.3,10.5,0000.0,0011.71,0003.72,0003.31
2023-09-25 20:28:00,SystemResetWarning,0835.4,5.00,000.00,027.8,025.8,000.0,036.1,029.3,10.6,0000.0,0011.59,0003.71,0003.30
2023-09-25 20:29:00,SystemResetWarning,0835.5,5.00,000.00,027.8,026.1,000.0,036.1,029.4,10.4,0000.0,0011.52,0003.74,0003.30
2023-09-25 20:30:00,SystemResetWarning,0835.5,5.00,000.00,027.8,026.4,000.0,036.2,029.5,10.4,0000.0,0010.30,0003.75,0003.31
2023-09-25 20:31:00,SystemResetWarning,0835.5,5.01,000.00,027.9,026.7,000.0,036.2,029.6,10.0,0000.0,0009.00,0003.74,0003.32
2023-09-25 20:32:00,SystemResetWarning,0835.5,5.00,000.00,028.0,026.9,000.0,036.2,029.7,9.7,0000.0,0008.58,0003.73,0003.31
2023-09-25 20:33:00,SystemResetWarning,0835.5,4.99,000.00,028.0,027.0,000.0,036.2,029.8,9.6,0000.0,0008.78,0003.73,0003.31
2023-09-25 20:34:00,SystemResetWarning,0835.4,4.99,000.00,028.0,025.8,000.0,036.2,029.5,9.7,0000.0,0008.71,0003.75,0003.30
2023-09-25 20:35:00,SystemResetWarning,0835.4,5.00,000.00,027.9,024.3,000.0,036.1,029.2,9.8,0000.0,0008.59,0003.75,0003.29
2023-09-25 20:36:00,SystemResetWarning,0835.3,5.01,000.00,027.8,024.2,000.0,036.1,029.2,10.1,0000.0,0008.62,0003.78,0003.29
2023-09-25 20:37:00,SystemResetWarning,0835.4,5.01,000.00,027.7,024.5,000.0,036.1,029.1,10.3,0000.0,0008.56,0003.80,0003.30
2023-09-25 20:38:00,SystemResetWarning,0835.3,5.00,000.00,027.7,024.9,000.0,036.1,029.1,10.8,0000.0,0008.44,0003.81,0003.30
2023-09-25 20:39:00,SystemResetWarning,0835.3,5.00,000.00,027.7,025.3,000.0,036.1,029.2,10.6,0001.6,0008.25,0003.80,0003.31
2023-09-25 20:40:00,SystemResetWarning,0835.3,5.00,000.00,027.7,025.7,000.0,036.1,029.3,10.6,0000.0,0008.22,0003.80,0003.30
2023-09-25 20:41:00,SystemResetWarning,0835.3,5.00,000.00,027.8,026.1,000.0,036.1,029.4,10.5,0001.6,0008.23,0003.79,0003.30
2023-09-25 20:42:00,SystemResetWarning,0835.3,5.00,000.00,027.8,026.4,000.0,036.1,029.5,10.4,0002.4,0008.29,0003.80,0003.30
2023-09-25 20:43:00,SystemResetWarning,0835.2,5.00,000.00,027.9,026.6,000.0,036.2,029.6,10.2,0002.5,0008.25,0003.80,0003.30
2023-09-25 20:44:00,SystemResetWarning,0835.4,5.00,000.00,027.9,026.8,000.0,036.2,029.7,10.3,0001.9,0007.73,0003.83,0003.31
2023-09-25 20:45:00,SystemResetWarning,0835.3,4.99,000.00,028.0,027.0,000.0,036.2,029.7,10.3,0001.1,0007.68,0003.86,0003.32
2023-09-25 20:46:00,SystemResetWarning,0835.2,4.99,000.00,028.0,026.3,000.0,036.2,029.6,10.6,0000.3,0007.79,0003.88,0003.31
2023-09-25 20:47:00,SystemResetWarning,0835.2,5.00,000.00,027.9,024.7,000.0,036.1,029.1,11.1,0000.1,0007.93,0003.88,0003.31
2023-09-25 20:48:00,SystemResetWarning,0835.3,5.01,000.00,027.8,024.2,000.0,036.1,029.1,11.1,0000.0,0008.45,0003.88,0003.30
2023-09-25 20:49:00,SystemResetWarning,0835.3,5.01,000.00,027.7,024.5,000.0,036.0,029.1,11.3,0000.0,0008.25,0003.85,0003.30
2023-09-25 20:50:00,SystemResetWarning,0835.3,5.00,000.00,027.7,024.8,000.0,036.0,029.1,11.5,0000.4,0008.26,0003.86,0003.31
2023-09-25 20:51:00,SystemResetWarning,0835.3,5.00,000.00,027.7,025.2,000.0,036.1,029.2,11.4,0000.0,0008.42,0003.87,0003.32
2023-09-25 20:52:00,SystemResetWarning,0835.3,5.00,000.00,027.7,025.6,000.0,036.1,029.3,11.1,0000.0,0008.67,0003.87,0003.32
2023-09-25 20:53:00,SystemResetWarning,0835.3,5.00,000.00,027.8,026.0,000.0,036.1,029.4,11.3,0000.0,0009.20,0003.90,0003.32
2023-09-25 20:54:00,SystemResetWarning,0835.2,5.00,000.00,027.8,026.3,000.0,036.1,029.5,11.3,0000.0,0009.22,0003.91,0003.33
2023-09-25 20:55:00,SystemResetWarning,0835.3,4.99,000.00,027.9,026.6,000.0,036.1,029.5,11.2,0000.0,0009.13,0003.87,0003.32
2023-09-25 20:56:00,SystemResetWarning,0835.3,5.01,000.00,027.9,026.9,000.0,036.2,029.6,11.1,0000.0,0009.04,0003.86,0003.32
2023-09-25 20:57:00,SystemResetWarning,0835.3,5.00,000.00,028.0,027.0,000.0,036.2,029.7,11.2,0000.0,0009.05,0003.85,0003.33
2023-09-25 20:58:00,SystemResetWarning,0835.2,4.98,000.00,028.0,025.9,000.0,036.1,029.5,11.3,0000.0,0009.35,0003.84,0003.33
2023-09-25 20:59:00,SystemResetWarning,0835.2,5.01,000.00,027.8,024.4,000.0,036.1,029.2,11.3,0000.0,0008.96,0003.84,0003.33
